TimeMST,TemperatureF,Dew PointF,Humidity,Sea Level PressureIn,VisibilityMPH,Wind Direction,Wind SpeedMPH,Gust SpeedMPH,PrecipitationIn,Events,Conditions,WindDirDegrees,DateUTC
12:53 AM,34.0,17.1,50,30.43,10.0,West,17.3,-,N/A,,Clear,260,2013-01-16 07:53:00
1:53 AM,34.0,16.0,48,30.40,10.0,WSW,17.3,31.1,N/A,,Clear,250,2013-01-16 08:53:00
2:53 AM,23.0,14.0,68,30.46,10.0,Variable,4.6,-,N/A,,Clear,0,2013-01-16 09:53:00
3:53 AM,25.0,12.9,60,30.45,10.0,Variable,4.6,-,N/A,,Clear,0,2013-01-16 10:53:00
4:53 AM,21.9,12.0,66,30.45,10.0,East,3.5,-,N/A,,Clear,90,2013-01-16 11:53:00
5:53 AM,19.0,10.9,71,30.47,10.0,Variable,3.5,-,N/A,,Clear,0,2013-01-16 12:53:00
6:53 AM,17.1,10.0,74,30.48,10.0,Calm,Calm,-,N/A,,Clear,0,2013-01-16 13:53:00
7:53 AM,16.0,10.0,77,30.47,10.0,NW,3.5,-,N/A,,Clear,310,2013-01-16 14:53:00
8:53 AM,17.1,9.0,71,30.46,10.0,NW,4.6,-,N/A,,Clear,310,2013-01-16 15:53:00
9:53 AM,19.9,12.0,71,30.47,10.0,WNW,4.6,-,N/A,,Clear,290,2013-01-16 16:53:00
10:53 AM,24.1,14.0,65,30.47,10.0,Calm,Calm,-,N/A,,Clear,0,2013-01-16 17:53:00
11:53 AM,28.9,15.1,56,30.44,10.0,Calm,Calm,-,N/A,,Clear,0,2013-01-16 18:53:00
12:53 PM,30.2,17.6,60,30.26,10.0,Calm,Calm,-,N/A,,Clear,0,2013-01-16 19:53:00
1:53 PM,42.1,19.9,41,30.35,10.0,West,25.3,33.4,N/A,,Clear,270,2013-01-16 20:53:00
2:00 PM,42.8,19.4,39,30.24,10.0,West,21.9,32.2,N/A,,Clear,270,2013-01-16 21:00:00
2:53 PM,43.0,19.9,40,30.39,10.0,West,24.2,35.7,N/A,,Clear,270,2013-01-16 21:53:00
3:53 PM,42.8,21.2,42,30.26,10.0,West,28.8,38.0,N/A,,Clear,260,2013-01-16 22:53:00
4:53 PM,42.1,21.9,45,30.44,10.0,West,23.0,-,N/A,,Clear,270,2013-01-16 23:53:00
5:53 PM,39.9,21.9,49,30.48,10.0,WSW,17.3,-,N/A,,Clear,250,2013-01-17 00:53:00
6:53 PM,39.9,21.0,47,30.49,10.0,West,10.4,25.3,N/A,,Clear,260,2013-01-17 01:53:00
7:53 PM,39.9,19.9,45,30.53,10.0,SE,8.1,-,N/A,,Clear,140,2013-01-17 02:53:00
8:53 PM,41.0,19.0,41,30.51,10.0,Calm,Calm,-,N/A,,Clear,0,2013-01-17 03:53:00
9:53 PM,43.0,17.1,35,30.50,10.0,Variable,3.5,-,N/A,,Clear,0,2013-01-17 04:53:00
10:53 PM,28.0,16.0,61,30.54,10.0,Calm,Calm,-,N/A,,Clear,0,2013-01-17 05:53:00
11:53 PM,23.0,15.1,72,30.55,10.0,ENE,4.6,-,N/A,,Clear,70,2013-01-17 06:53:00